CAPE
929 1176 1469 1752 1815 1677 1725 1903 1950 1864 1806 1679 1739 1856 1841 1842 1812 1530 1417 1584 1786 2023 2016 1902 2110 1428 1754 2114 1880 2020 1713 1588 1504 703 1518 1727 1714 1643 767 176 191 1506 1546
930 1118 1553 1741 1767 1735 1814 1890 1897 1950 1855 1883 1845 2047 1847 1929 1587 1523 1767 1891 1900 2049 1979 2143 1965 1713 2192 2118 1875 1764 1557 1326 943 727 2037 1674 1646 1707 1717 182 726 1501 1504
956 1150 1381 1744 1813 1765 1776 1766 1858 2030 1907 1826 2025 2080 1788 1609 1650 2050 1986 1654 2077 2104 2017 2110 1827 1990 1715 1862 1718 1515 1267 576 434 993 1763 1116 1118 1679 1701 1495 574 1588 1323
966 1132 1370 1746 1855 1818 1701 1643 1829 1949 2012 2004 1818 1497 1543 1924 2200 2036 1849 1704 1792 1869 1930 1750 1765 1719 1599 1591 1636 1701 1361 783 567 1433 1098 571 850 1550 1808 1779 1171 1190 1067
1012 1226 1553 1555 1657 1848 1767 1731 1821 1766 1672 1588 1535 1441 2015 1829 1641 1381 1687 1688 1740 1810 1833 1714 1504 1696 1654 1656 1594 1508 1646 669 777 619 1147 945 896 1500 1786 1840 1780 1667 909
892 1251 1442 1325 1264 1616 1723 1668 1696 1617 1608 1669 1277 1189 1730 1285 1712 1984 1664 1769 1783 1815 1874 1815 1728 1533 1612 1588 1806 1753 1539 204 194 361 1165 1095 1010 1564 1738 1532 1970 1900 1794
823 1272 1276 1233 1217 1355 1487 1477 1540 1510 1635 1940 1503 1616 1579 1246 1188 1363 1625 1642 1563 1689 1652 1511 1640 1543 1533 1449 1482 1783 1456 803 112 242 843 1088 700 1559 1627 1625 1777 1803 1839
848 981 1325 958 1138 1231 1371 1875 1450 1315 1321 1400 1920 1683 1663 1586 972 1133 1091 1045 1410 1452 1383 1317 1210 1224 1253 1163 1127 1558 1042 746 48 268 629 1084 818 1580 1613 1617 1192 1389 1909
1044 945 1030 873 923 1012 1460 2200 2176 1408 728 1029 1756 1935 1658 1397 1469 648 841 1107 824 1219 1154 1081 1189 1200 1265 955 978 786 656 868 484 264 244 735 1025 1545 1633 1163 1254 1393 1703
903 959 699 594 422 484 721 2091 2189 2219 1647 1104 1173 1788 1569 1602 1512 1351 323 369 947 937 1086 1073 1043 824 942 1058 963 1050 1261 478 792 579 435 857 594 938 1741 1354 1673 1746 1501
938 733 535 381 348 492 314 1194 2119 1566 2111 2048 1014 1535 1295 1101 600 628 757 417 423 745 944 517 661 779 665 629 651 719 680 853 753 454 491 347 352 943 1416 1121 1512 1498 1617
794 473 393 164 323 320 119 364 1372 1713 352 1623 1258 573 631 502 524 427 30 782 1005 976 944 989 559 421 100 242 319 211 308 559 699 468 418 462 436 705 1154 565 719 1193 1860
637 387 306 168 376 722 374 157 1028 1258 806 607 1259 682 510 263 250 94 126 9 159 227 515 263 531 204 209 464 13 397 185 288 491 508 254 245 469 711 644 486 402 709 1542
305 539 284 151 331 426 702 525 425 936 1209 433 808 933 488 173 191 234 51 11 168 223 243 516 398 251 223 468 183 51 232 271 160 319 193 72 196 474 525 203 211 431 1231
202 359 430 238 304 362 599 702 499 521 652 798 718 651 298 25 84 330 212 23 8 21 90 263 442 436 276 379 51 247 486 60 483 219 361 44 80 447 556 52 342 799 908
360 332 379 647 524 310 386 809 794 641 533 409 502 208 583 80 157 168 451 372 216 61 150 402 526 423 413 358 277 51 114 290 380 225 259 188 59 124 92 0 7 916 983
680 754 668 890 883 568 433 777 980 697 447 374 486 361 779 533 283 192 212 408 588 628 614 231 222 394 415 655 516 387 572 248 352 339 438 325 80 53 91 5 0 810 1108
1056 1061 921 876 935 862 733 778 846 592 362 487 369 370 526 833 739 725 639 735 770 590 676 220 654 557 534 417 367 207 585 325 179 203 211 560 83 23 55 47 42 753 1164
1461 1456 1323 1141 910 902 1019 887 957 589 541 413 338 314 474 1043 978 834 884 845 902 524 693 776 277 746 785 605 421 634 733 554 88 276 433 141 74 167 151 96 90 364 1035
1501 1629 1580 1451 1228 1138 1104 1134 912 752 573 233 247 553 595 894 720 953 939 959 1151 577 589 690 595 476 786 664 420 536 466 475 76 63 428 466 174 303 521 92 139 61 505
1473 1599 1612 1663 1497 1420 1248 1164 829 480 257 214 223 530 383 698 649 710 370 527 598 619 817 763 92 173 748 487 551 461 563 507 64 69 513 199 449 391 341 355 454 149 41
1569 1699 1661 1633 1741 1591 1338 1175 838 545 243 134 297 646 511 669 151 224 214 244 681 468 79 401 674 452 818 459 181 509 55 246 676 470 654 620 614 546 394 394 384 208 376
1542 1663 1808 1861 1791 1506 1234 1276 1143 795 317 252 176 48 269 158 410 78 111 127 623 881 109 197 722 561 802 610 570 398 368 16 512 524 457 698 633 532 326 396 221 182 321
1534 1575 1768 1867 1925 1579 1357 1255 1219 668 438 204 26 32 106 73 23 25 107 134 374 430 731 902 130 122 708 739 459 672 324 438 53 333 366 421 596 576 375 416 127 337 471
1589 1556 1489 1738 1864 1652 1533 1345 1324 1097 644 473 361 159 49 33 9 0 0 2 252 505 490 935 350 101 577 778 769 401 611 666 374 248 548 311 185 555 391 366 128 44 89
1457 1595 1451 1335 1651 1722 1704 1650 1504 1389 1052 703 580 346 58 38 1 0 4 0 5 382 490 726 850 710 284 920 946 374 455 249 584 487 591 466 409 421 614 483 409 177 29
CIN
-19 -13 -0 -0 -0 -9 -13 -9 -7 -7 -13 -21 -19 -9 -2 -1 -1 -8 -7 -4 -0 -0 -0 -0 -0 -13 -0 -0 -0 -0 -2 -0 -0 -32 -1 -0 -0 -0 -13 -69 -52 -0 -0
-37 -27 -0 -0 -0 -10 -9 -12 -7 -8 -9 -11 -8 -0 -0 -0 -4 -0 -0 -1 -0 -0 -0 -0 -0 -0 -0 -0 -0 -1 -0 -0 -9 -23 -0 -0 -0 -0 -0 -71 -6 -1 -0
-38 -23 -1 -0 -1 -7 -7 -19 -10 -5 -5 -5 -0 -0 -3 -4 -0 -1 -0 -0 -0 -0 -0 -0 -0 -0 -2 -0 -0 -0 -1 -39 -50 -15 -7 -2 -1 -0 -0 -0 -37 -0 -0
-31 -22 -5 -1 -2 -5 -6 -16 -0 -0 -0 -0 -1 -8 -4 -0 -0 -0 -1 -0 -0 -0 -0 -0 -0 -0 -0 -0 -0 -0 -0 -23 -42 -16 -6 -1 -1 -0 -0 -0 -5 -5 -11
-18 -8 -4 -3 -2 -0 -0 -2 -0 -0 -0 -1 -1 -5 -0 -0 -0 -0 -0 -0 -0 -0 -0 -0 -0 -0 -0 -0 -1 -3 -0 -25 -19 -8 -7 -4 -1 -1 -0 -0 -0 -0 -8
-23 -3 -13 -14 -20 -8 -5 -3 -1 -1 -1 -0 -7 -4 -3 -4 -0 -0 -0 -0 -0 -0 -0 -0 -0 -0 -0 -0 -0 -0 -0 -60 -42 -2 -1 -4 -0 -1 -0 -0 -0 -0 -0
-20 -7 -15 -18 -31 -21 -14 -9 -6 -4 -0 -0 -2 -3 -3 -0 -0 -0 -0 -0 -0 -0 -0 -0 -0 -0 -0 -0 -0 -0 -0 -11 -17 -2 -1 -1 -0 -0 -0 -0 -0 -0 -0
-7 -18 -6 -30 -24 -17 -8 -0 -7 -3 -10 -7 -1 -3 -2 -1 -3 -0 -0 -0 -0 -0 -0 -0 -0 -0 -0 -1 -3 -0 -8 -5 -23 -0 -1 -1 -10 -0 -0 -0 -1 -0 -0
-1 -3 -16 -26 -22 -16 -0 -0 -0 -3 -45 -14 -0 -0 -0 -1 -0 -18 -5 -0 -0 -0 -0 -0 -0 -0 -0 -0 -3 -11 -12 -9 -0 -1 -0 -1 -10 -0 -0 -3 -0 -0 -0
-3 -6 -17 -42 -63 -47 -18 -0 -0 -0 -0 -10 -2 -0 -1 -0 -0 -0 -24 -16 -1 -0 -0 -0 -0 -0 -0 -0 -2 -5 -2 -16 -0 -11 -0 -8 -18 -5 -0 -0 -0 -0 -0
-6 -10 -21 -52 -74 -51 -48 -2 -0 -1 -0 -0 -6 -0 -1 -5 -10 -3 -2 -14 -6 -0 -0 -4 -5 -2 -6 -8 -7 -10 -12 -1 -1 -1 -1 -26 -16 -4 -2 -3 -1 -2 -0
-33 -40 -31 -81 -46 -55 -75 -29 -0 -0 -14 -0 -0 -1 -1 -1 -1 -0 -8 -3 -1 -0 -0 -0 -1 -6 -36 -9 -3 -19 -1 -1 -1 -0 -7 -14 -11 -5 -3 -13 -9 -4 -0
-27 -49 -53 -70 -41 -4 -19 -42 -1 -1 -0 -1 -0 -0 -1 -0 -1 -2 -3 -7 -0 -6 -0 -5 -3 -1 -1 -16 -54 -1 -8 -1 -1 -1 -22 -20 -8 -2 -5 -17 -14 -4 -1
-40 -27 -50 -86 -45 -15 -1 -9 -2 -1 -3 -1 -0 -1 -0 -1 -1 -0 -18 -1 -2 -0 -1 -1 -2 -2 -1 -11 -22 -41 -8 -3 -1 -1 -25 -38 -24 -6 -12 -57 -45 -32 -4
-47 -29 -24 -67 -75 -43 -9 -2 -2 -1 -1 -1 -4 -1 -0 -14 -2 -1 -1 -8 -0 -44 -8 -1 -13 -2 -0 -6 -54 -22 -12 -51 -0 -2 -19 -41 -35 -7 -16 -71 -30 -8 -13
-37 -28 -28 -9 -28 -51 -28 -2 -2 -0 -0 -1 -1 -8 -0 -23 -8 -1 -1 -1 -1 -7 -1 -1 -1 -9 -5 -2 -26 -75 -41 -13 -1 -2 -0 -9 -28 -21 -23 -0 -106 -4 -5
-10 -6 -12 -6 -3 -19 -23 -2 -2 -1 -0 -4 -1 -2 -0 -1 -6 -20 -3 -2 -2 -0 -2 -12 -15 -2 -3 -1 -1 -12 -1 -30 -6 -6 -4 -2 -18 -27 -24 -91 -0 -2 -0
-1 -10 -24 -12 -3 -2 -4 -1 -1 -1 -1 -1 -0 -0 -2 -1 -1 -2 -3 -5 -4 -1 -1 -15 -2 -2 -1 -1 -10 -24 -4 -17 -28 -18 -2 -12 -13 -26 -24 -27 -26 -6 -3
-6 -2 -13 -18 -17 -3 -1 -1 -1 -1 -4 -1 -1 -0 -0 -1 -0 -0 -5 -5 -4 -2 -4 -1 -21 -0 -0 -1 -6 -1 -0 -3 -41 -14 -0 -29 -27 -9 -5 -27 -25 -13 -4
-34 -12 -18 -16 -20 -18 -1 -1 -1 -2 -5 -7 -2 -3 -3 -1 -1 -0 -1 -0 -0 -3 -0 -1 -4 -4 -0 -0 -5 -1 -3 -12 -54 -46 -1 -0 -21 -5 -1 -28 -15 -28 -16
-60 -29 -15 -17 -25 -17 -13 -11 -25 -27 -25 -30 -9 -38 -26 -6 -23 -11 -18 -10 -1 -10 -0 -1 -57 -29 -1 -5 -0 -0 -1 -0 -60 -47 -0 -8 -1 -1 -4 -2 -3 -2 -58
-58 -46 -46 -41 -30 -33 -22 -15 -18 -14 -33 -22 -11 -13 -29 -27 -63 -45 -27 -18 -1 -20 -69 -14 -6 -6 -3 -11 -8 -1 -27 -2 -0 -5 -0 -0 -0 -1 -1 -1 -0 -17 -2
-79 -68 -60 -46 -42 -70 -68 -17 -12 -27 -48 -66 -112 -147 -84 -83 -31 -85 -67 -47 -1 -8 -66 -50 -4 -9 -0 -6 -1 -10 -0 -40 -1 -3 -8 -0 -0 -2 -1 -1 -13 -35 -10
-104 -81 -63 -36 -37 -67 -63 -17 -24 -59 -58 -98 -124 -141 -127 -108 -78 -81 -47 -52 -16 -4 -2 -11 -70 -61 -0 -0 -6 -2 -5 -5 -23 -3 -4 -4 -0 -0 -1 -3 -30 -8 -2
-108 -110 -119 -81 -55 -48 -47 -48 -24 -27 -26 -39 -50 -75 -97 -119 -115 -0 -0 -72 -18 -1 -1 -0 -32 -65 -7 -1 -1 -13 -2 -1 -9 -7 -1 -6 -25 -1 -2 -5 -26 -71 -51
-148 -140 -129 -164 -113 -67 -45 -34 -23 -14 -15 -5 -29 -55 -62 -104 -34 -0 -28 -0 -55 -1 -1 -1 -2 -0 -30 -0 -0 -13 -8 -24 -5 -2 -1 -1 -8 -19 -1 -2 -1 -29 -99
Wind_Speed
30 27 29 27 27 28 28 30 30 30 30 29 28 27 26 25 24 22 19 18 16 15 13 20 23 22 25 26 22 23 24 27 2 4 3 13 8 6 5 8 18 10 10
30 28 28 25 24 25 25 27 29 29 29 28 27 26 26 24 22 20 20 21 21 20 17 7 19 17 17 18 20 18 15 14 8 19 6 9 4 2 2 5 4 7 8
28 27 27 25 24 23 23 23 25 26 27 27 27 26 25 23 21 19 17 19 21 23 22 17 14 16 18 15 13 16 18 15 18 27 28 11 6 3 5 8 6 5 7
28 27 26 25 23 23 23 22 23 22 21 26 26 25 24 22 17 15 16 20 22 23 20 19 15 15 14 16 16 16 13 9 9 24 18 8 8 3 6 6 8 7 8
27 26 23 25 23 23 23 22 22 22 21 25 25 24 24 21 17 15 16 17 20 7 21 21 18 14 14 13 11 15 18 8 4 10 5 4 4 3 5 6 6 6 6
28 24 22 24 24 23 23 22 23 24 25 24 24 24 23 19 17 16 15 13 17 22 22 20 15 18 16 15 11 12 13 14 18 6 6 4 4 4 2 2 2 3 2
27 21 24 23 25 24 25 24 22 22 23 23 23 24 24 21 17 18 17 14 20 19 18 21 20 19 12 13 8 13 14 19 13 10 5 8 6 3 4 2 2 2 1
25 24 22 23 25 26 25 24 23 23 23 22 22 22 23 22 20 20 19 18 19 5 6 18 16 17 19 11 18 14 18 20 13 6 6 6 6 4 3 3 4 2 2
23 24 23 24 25 25 26 21 22 21 22 18 20 22 23 22 21 20 20 20 21 19 21 22 20 22 22 20 16 9 17 7 12 8 7 7 5 5 4 4 3 4 4
22 22 23 23 23 23 23 24 20 20 20 19 21 22 19 21 21 21 21 21 20 20 20 20 20 18 17 16 11 10 14 17 13 12 12 7 5 5 5 5 5 5 4
25 23 22 22 22 22 23 23 22 20 20 21 22 23 20 18 19 21 20 20 21 20 20 20 20 18 17 14 13 14 19 19 14 12 10 7 6 4 6 6 5 5 6
24 23 22 21 22 20 21 21 23 22 21 21 22 23 21 19 19 19 22 22 21 20 19 19 19 18 18 17 17 14 20 8 19 11 9 9 8 4 6 7 6 6 9
21 22 21 21 21 20 18 20 21 21 22 20 20 21 20 19 19 19 20 22 20 18 18 16 17 18 19 16 18 11 19 17 16 16 11 10 9 8 3 4 4 4 11
20 21 20 20 20 21 17 18 21 21 17 21 18 21 20 19 19 19 21 23 22 19 16 18 19 19 17 13 16 16 18 20 16 15 12 14 12 10 10 5 10 3 11
18 20 20 18 20 21 19 16 18 19 19 20 9 19 19 18 19 19 20 22 20 18 16 16 17 17 17 14 14 16 14 16 15 17 11 15 14 13 12 9 4 17 14
16 16 20 19 16 20 18 18 15 16 16 19 15 15 16 21 12 20 20 20 19 18 17 18 17 18 17 16 14 14 11 11 14 20 18 15 14 14 14 13 16 30 2
14 15 19 21 18 17 18 17 17 16 16 16 14 13 14 15 10 22 21 21 18 14 17 18 18 18 17 17 15 14 13 9 5 5 20 14 13 15 17 18 24 29 8
7 11 16 20 22 21 21 17 18 15 16 12 10 14 12 10 6 18 23 21 12 17 15 19 18 18 17 16 13 13 12 12 10 9 17 17 12 18 19 23 27 33 32
9 5 12 18 21 19 21 19 17 17 21 17 17 17 15 14 5 26 24 22 16 11 17 18 17 17 16 14 13 11 12 11 12 14 17 14 18 23 27 27 32 34 32
12 13 14 15 17 17 16 17 17 17 17 19 6 17 25 22 22 28 28 26 25 21 21 16 19 20 15 13 9 9 10 10 11 21 24 22 22 26 27 27 30 34 33
21 23 20 18 16 14 15 14 17 17 17 15 14 10 21 28 27 29 29 27 26 24 24 17 6 22 15 7 8 9 13 12 14 20 24 22 23 27 27 24 30 31 30
19 18 20 18 15 17 14 13 10 11 7 14 1 7 10 12 30 28 30 29 27 25 19 19 9 19 9 5 7 7 8 10 14 17 24 22 23 26 28 27 30 31 28
18 19 18 16 16 16 15 9 5 2 7 5 5 7 12 7 20 27 27 29 28 25 27 2 17 26 25 4 7 8 10 12 10 13 13 24 23 26 24 27 28 30 31
17 16 15 15 14 16 17 14 12 11 9 11 11 8 5 11 26 25 25 32 32 27 26 18 12 21 29 17 7 8 10 13 10 7 11 23 26 25 26 29 23 26 27
14 14 12 12 13 14 15 18 14 15 10 4 6 9 8 5 8 4 4 9 25 22 21 22 6 2 28 28 11 10 13 23 23 13 7 7 20 28 22 28 25 25 25
13 12 10 8 10 12 13 15 17 14 15 10 7 9 8 8 8 8 7 16 10 31 29 27 5 10 29 29 25 15 10 14 20 7 11 4 9 18 23 23 28 25 24
Wind_Direction
128 116 123 111 110 113 112 127 133 132 128 126 119 123 126 126 125 137 158 167 178 185 195 144 86 72 97 92 82 71 74 84 43 199 28 50 43 43 47 54 72 54 57
123 118 118 108 102 103 103 110 125 126 129 125 124 131 133 133 132 141 143 135 152 150 168 231 56 51 58 63 71 61 49 45 29 66 33 40 37 39 44 46 68 56 52
120 119 119 112 105 101 98 96 104 109 120 123 124 128 132 139 143 149 159 162 155 128 98 48 31 48 63 52 47 54 62 49 61 99 127 40 33 25 38 47 58 55 46
120 121 119 115 109 105 102 98 97 96 95 118 124 130 138 150 169 170 164 157 154 137 77 65 40 46 45 56 57 55 45 26 44 150 146 30 36 8 39 44 53 56 53
121 122 115 120 113 110 109 106 102 103 99 124 137 143 141 155 175 174 171 170 162 180 80 80 64 44 49 43 30 52 64 20 10 209 314 276 4 295 33 42 47 50 50
125 119 116 121 118 116 114 111 114 120 129 127 135 152 131 176 184 183 184 193 177 94 97 80 48 71 61 60 30 38 40 48 81 334 342 301 325 4 320 340 2 33 32
127 113 123 120 125 123 124 121 115 114 122 127 133 159 149 167 188 176 180 193 152 73 61 89 81 76 41 49 8 46 48 89 37 258 344 264 18 350 1 333 333 347 350
123 123 119 124 130 132 129 130 121 126 136 131 141 129 172 168 175 166 170 171 162 119 270 70 64 71 89 35 190 69 85 126 44 331 327 337 20 326 316 313 281 301 311
122 127 127 132 135 137 139 119 123 120 132 113 132 191 181 181 183 178 165 163 148 169 156 123 160 139 119 95 77 9 96 64 46 11 349 356 326 305 301 297 314 274 272
123 127 132 133 134 136 136 140 121 122 125 118 138 194 210 195 193 178 166 165 166 169 167 158 153 161 87 80 26 12 71 95 47 53 278 347 332 321 307 283 277 271 271
141 135 135 135 134 135 140 143 141 129 132 142 157 181 195 221 224 177 192 146 166 169 159 157 152 129 116 89 71 258 144 159 95 78 334 354 26 337 287 281 273 268 259
142 141 138 137 140 131 137 139 151 152 150 149 158 169 177 173 178 197 173 176 171 159 160 155 157 148 149 184 134 110 182 88 149 69 56 64 67 38 300 280 280 266 246
138 142 141 142 142 137 131 138 148 155 161 153 153 158 176 184 183 175 151 162 154 144 163 142 153 160 163 127 162 228 162 142 119 135 69 89 81 78 6 36 20 309 248
142 144 144 145 146 148 135 139 154 157 139 169 145 161 165 177 184 188 178 181 185 161 143 189 188 178 160 113 143 148 163 175 138 124 79 110 103 96 102 90 86 304 259
146 149 149 146 151 154 151 143 147 157 156 164 98 157 163 163 186 186 186 182 170 175 165 165 168 172 164 136 141 148 130 156 179 162 96 123 120 119 115 109 52 246 253
149 153 157 156 150 158 155 155 148 150 153 166 147 147 153 181 123 195 198 179 178 179 180 192 179 174 167 158 142 145 135 137 148 169 151 134 135 132 124 122 142 208 270
145 152 162 164 161 159 162 160 162 160 160 160 153 148 152 160 128 203 193 198 181 158 184 196 189 182 177 173 155 139 138 120 350 85 166 133 125 137 140 140 153 171 127
129 141 157 164 170 167 170 165 171 165 169 154 147 160 157 150 134 178 208 207 142 185 172 197 195 192 178 173 143 141 126 113 107 125 155 151 107 147 148 158 167 180 186
139 134 146 158 165 165 172 172 170 174 185 179 174 174 168 168 317 263 214 208 297 146 191 205 192 186 175 152 142 119 117 112 127 148 151 137 154 169 180 165 175 182 188
149 152 152 155 160 162 163 169 172 177 179 184 167 182 209 191 191 226 251 244 243 209 216 194 218 221 172 149 116 94 102 117 132 173 193 181 169 179 183 165 171 183 187
168 170 167 163 163 160 164 163 172 177 177 176 175 296 190 219 264 249 246 258 229 229 239 200 110 222 185 74 66 92 138 131 154 174 192 174 167 176 171 152 173 171 171
169 171 174 173 172 175 171 170 164 166 165 171 289 154 196 182 247 251 249 257 263 277 268 209 159 208 198 57 48 63 87 128 160 158 181 175 168 175 170 162 181 178 169
173 175 180 183 181 181 182 177 176 292 174 182 182 295 289 299 288 259 276 268 269 283 265 277 270 259 253 51 134 358 354 342 102 130 137 187 170 176 158 168 171 177 180
171 170 173 180 187 188 187 187 188 190 189 191 190 193 220 301 284 282 283 261 264 280 285 310 332 300 259 285 336 152 178 327 119 52 298 243 206 172 165 177 157 164 168
162 165 165 171 181 186 187 192 193 197 201 265 253 208 223 245 198 251 227 302 287 288 295 296 350 105 232 262 314 319 166 201 209 276 91 310 254 196 161 179 167 167 168
153 162 156 161 175 181 185 188 192 196 198 202 250 260 213 214 215 222 286 301 274 269 276 281 192 189 240 268 277 299 297 297 176 90 268 7 125 159 170 167 181 172 172